Regional Weather Roundup
Issued by NWS

Home | Current Version | Previous Version | Graphics & Text | Print | Product List | Glossary On
Versions: 1 2 3 4 5 6 7 8 9 10 11 12 13 14 15 16 17 18 19 20 21 22 23 24 25 26 27 28 29 30 31 32 33 34 35 36 37 38 39 40 41 42 43 44 45 46 47 48 49 50
000
ASUS43 KIND 240109
RWRIN

WEATHER ROUNDUP FOR INDIANA
NATIONAL WEATHER SERVICE INDIANAPOLIS IN
900 PM EDT SAT SEP 23 2017

NOTE: "FAIR" INDICATES FEW OR NO CLOUDS BELOW 12,000 FEET WITH NO
SIGNIFICANT WEATHER AND/OR OBSTRUCTIONS TO VISIBILITY.

* - STATION DOES NOT REPORT WEATHER SUCH AS PRECIPITATION OR FOG.

+ - STATION NOT QUALITY CONTROLLED BY THE NATIONAL WEATHER SERVICE.
    USE DATA WITH CAUTION...ESPECIALLY DEWPOINT AND RELATIVE
    HUMIDITY OBSERVATIONS.

INZ001>003-010>013-019-020-240200-
NORTHWEST INDIANA

CITY           SKY/WX    TMP DP  RH WIND       PRES   REMARKS
GARY /AIRPORT/ CLEAR     79  66  65 E7        30.05S
KNOX *+        CLEAR     73  66  78 E3        30.07R
LA PORTE +     CLEAR     73  68  86 CALM      30.08S
MICHIGAN CITY+ CLEAR     73  66  78 CALM      30.07S
MONTICELLO +   CLEAR     75  66  73 CALM      30.05S
RENSSELAER +   CLEAR     79  55  44 E3        30.06S
VALPARAISO     CLEAR     80  66  62 E5        30.07R

$$

LMZ046-743>745-240200-
SOUTHERN LAKE MICHIGAN

STATION/POSITION TIME  TEMP    WIND        PRES    WAVE
                       AIR SEA DIR/SP/G            HT
                 (UTC) (F)     (DEG/KT/KT) (MB)    (FT)
BURNS HARBOR     0040   81      90/  9/ 10 1017.9R
MICHIGAN CITY    0040   80      70/  6/  7   N/A
5NW MICH CITY    0100   76 73  100/  8/  8   N/A     1

$$

INZ004-005-014>016-021>024-240200-
NORTH CENTRAL INDIANA

CITY           SKY/WX    TMP DP  RH WIND       PRES   REMARKS
GOSHEN         CLEAR     74  64  71 CALM      30.09R
LOGANSPORT +   CLEAR     72  64  78 CALM      30.08R
PERU/GRISSOM   CLEAR     78  65  63 E6        30.06S
SOUTH BEND     CLEAR     81  66  60 SE7       30.08R
WARSAW +       CLEAR     73  64  73 CALM      30.09R

$$

INZ006>009-017-018-025>027-240200-
NORTHEAST INDIANA

CITY           SKY/WX    TMP DP  RH WIND       PRES   REMARKS
AUBURN +       CLEAR     73  63  68 E3        30.10S
FORT WAYNE     CLEAR     75  63  66 E6        30.09S
HUNTINGTON +   CLEAR     78  62  57 E3        30.08S
KENDALLVILLE + CLEAR     75  65  70 E3        30.10S

$$

INZ028-029-035-036-043>045-051>053-240200-
WEST CENTRAL INDIANA

CITY           SKY/WX    TMP DP  RH WIND       PRES   REMARKS
CRAWFORDSVL +  CLEAR     73  63  68 E5        30.07
GREENCASTLE +  CLEAR     75  61  60 CALM      30.08R
LAFAYETTE      CLEAR     79  65  62 E6        30.05R
TERRE HAUTE    CLEAR     73  62  68 CALM      30.05R

$$

INZ030>032-037>040-046>048-054>057-064-065-240200-
CENTRAL INDIANA

CITY           SKY/WX    TMP DP  RH WIND       PRES   REMARKS
CP ATTERBURY + CLEAR     70  64  83 CALM      30.08S
COLUMBUS       CLEAR     73  61  64 CALM      30.07R
FRANKFORT +    PTCLDY    74  68  81 E3        30.09R
INDIANAPOLIS   PTCLDY    80  62  54 SE6       30.07R
-EAGLE CREEK   CLEAR     83  62  49 MISG      30.06S
KOKOMO +       CLEAR     74  66  76 E3        30.08S
MARION +       CLEAR     77  63  61 E5        30.09R
MT COMFORT *+  CLEAR     75  63  64 SE3       30.08S
SHELBYVILLE    CLEAR     72  64  76 SE3       30.07R
ZIONSVILLE +     N/A     71  66  87 CALM      30.08S

$$

INZ033-034-041-042-049-050-058-059-240200-
EAST CENTRAL INDIANA

CITY           SKY/WX    TMP DP  RH WIND       PRES   REMARKS
MUNCIE         CLEAR     74  63  68 E6        30.09R
RICHMOND +     CLEAR     72  63  73 CALM      30.11S

$$

INZ060-061-067>069-081>083-085>088-240200-
SOUTHWEST INDIANA

CITY           SKY/WX    TMP DP  RH WIND       PRES   REMARKS
EVANSVILLE     CLEAR     75  65  70 CALM      30.03S
HUNTINGBURG +  CLEAR     74  65  73 NE3       30.05R
WASHINGTON +   CLEAR     73  63  72 CALM      30.04S

$$

INZ062-063-066-070>080-084-089>092-240200-
SOUTH CENTRAL AND SOUTHEAST INDIANA

CITY           SKY/WX    TMP DP  RH WIND       PRES   REMARKS
BEDFORD +      CLEAR     73  63  68 E3        30.06
BLOOMINGTON    CLEAR     73  62  68 CALM      30.07R
MADISON *+     CLEAR     70  64  83 CALM      30.09S
NORTH VERNON + CLEAR     68  66  94 CALM      30.08S
SEYMOUR +      CLEAR     72  64  78 CALM      30.06S

$$




USA.gov is the U.S. government's official web portal to all federal, state and local government web resources and services.